TimeAKST,TemperatureF,Dew PointF,Humidity,Sea Level PressureIn,VisibilityMPH,Wind Direction,Wind SpeedMPH,Gust SpeedMPH,PrecipitationIn,Events,Conditions,WindDirDegrees,DateUTC
8:16 AM,33.8,30.2,87,29.14,10.0,Calm,Calm,-,N/A,,Clear,0,2013-01-05 17:16:00
8:56 AM,33.8,30.2,87,29.14,10.0,WSW,4.6,-,N/A,,Overcast,250,2013-01-05 17:56:00
9:16 AM,33.8,30.2,87,29.14,10.0,Calm,Calm,-,N/A,,Overcast,0,2013-01-05 18:16:00
9:36 AM,33.8,30.2,87,29.15,10.0,South,3.5,-,N/A,,Overcast,180,2013-01-05 18:36:00
10:36 AM,35.6,30.2,81,29.16,10.0,SSW,13.8,23.0,N/A,,Overcast,210,2013-01-05 19:36:00
10:56 AM,37.4,28.4,70,29.16,10.0,West,10.4,-,N/A,,Mostly Cloudy,270,2013-01-05 19:56:00
11:16 AM,35.6,28.4,75,29.17,10.0,West,9.2,-,N/A,,Overcast,270,2013-01-05 20:16:00
11:36 AM,37.4,28.4,70,29.19,10.0,WSW,12.7,-,N/A,,Overcast,240,2013-01-05 20:36:00
11:56 AM,35.6,28.4,75,29.20,10.0,WSW,11.5,20.7,N/A,,Mostly Cloudy,240,2013-01-05 20:56:00
12:16 PM,37.4,26.6,65,29.20,10.0,West,10.4,20.7,N/A,,Scattered Clouds,260,2013-01-05 21:16:00
12:36 PM,37.4,26.6,65,29.21,10.0,West,9.2,-,N/A,,Clear,260,2013-01-05 21:36:00
12:56 PM,37.4,24.8,60,29.21,10.0,WSW,13.8,20.7,N/A,,Partly Cloudy,250,2013-01-05 21:56:00
1:16 PM,37.4,24.8,60,29.22,10.0,WSW,11.5,-,N/A,,Clear,250,2013-01-05 22:16:00
1:56 PM,37.4,21.2,52,29.23,10.0,WSW,8.1,-,N/A,,Clear,240,2013-01-05 22:56:00
2:16 PM,37.4,23.0,56,29.23,10.0,West,6.9,-,N/A,,Partly Cloudy,260,2013-01-05 23:16:00
2:36 PM,37.4,23.0,56,29.23,10.0,West,5.8,-,N/A,,Partly Cloudy,260,2013-01-05 23:36:00
2:56 PM,37.4,23.0,56,29.22,10.0,West,11.5,-,N/A,,Clear,270,2013-01-05 23:56:00
3:16 PM,37.4,21.2,52,29.22,10.0,WSW,12.7,17.3,N/A,,Clear,250,2013-01-06 00:16:00
3:36 PM,37.4,21.2,52,29.22,10.0,WSW,10.4,17.3,N/A,,Clear,240,2013-01-06 00:36:00
3:56 PM,37.4,23.0,56,29.22,10.0,WSW,16.1,21.9,N/A,,Clear,240,2013-01-06 00:56:00
4:16 PM,37.4,21.2,52,29.24,10.0,West,11.5,19.6,N/A,,Clear,260,2013-01-06 01:16:00
4:36 PM,37.4,23.0,56,29.27,10.0,North,8.1,-,N/A,,Mostly Cloudy,10,2013-01-06 01:36:00
4:56 PM,37.4,21.2,52,29.27,10.0,NW,5.8,-,N/A,,Overcast,310,2013-01-06 01:56:00
5:16 PM,35.6,24.8,65,29.27,10.0,West,8.1,-,N/A,,Scattered Clouds,260,2013-01-06 02:16:00
5:36 PM,35.6,21.2,56,29.28,10.0,East,3.5,-,N/A,,Scattered Clouds,100,2013-01-06 02:36:00
5:56 PM,33.8,24.8,70,29.28,10.0,South,5.8,-,N/A,,Scattered Clouds,170,2013-01-06 02:56:00
6:16 PM,33.8,23.0,65,29.28,10.0,Calm,Calm,-,N/A,,Clear,0,2013-01-06 03:16:00
6:36 PM,33.8,21.2,60,29.28,10.0,SSE,4.6,-,N/A,,Clear,160,2013-01-06 03:36:00
6:56 PM,33.8,21.2,60,29.27,10.0,West,3.5,-,N/A,,Clear,280,2013-01-06 03:56:00
7:16 PM,32.0,21.2,64,29.27,10.0,Calm,Calm,-,N/A,,Clear,0,2013-01-06 04:16:00
7:36 PM,33.8,21.2,60,29.27,10.0,South,3.5,-,N/A,,Clear,190,2013-01-06 04:36:00
7:56 PM,32.0,23.0,69,29.27,10.0,SW,5.8,-,N/A,,Clear,220,2013-01-06 04:56:00
8:16 PM,32.0,23.0,69,29.27,10.0,Calm,Calm,-,N/A,,Clear,0,2013-01-06 05:16:00
8:36 PM,32.0,21.2,64,29.28,10.0,NNE,5.8,-,N/A,,Clear,30,2013-01-06 05:36:00
8:56 PM,32.0,24.8,75,29.28,10.0,NNE,4.6,-,N/A,,Clear,20,2013-01-06 05:56:00
9:16 PM,32.0,24.8,75,29.28,10.0,NE,6.9,-,N/A,,Clear,40,2013-01-06 06:16:00
9:36 PM,32.0,23.0,69,29.27,10.0,Calm,Calm,-,N/A,,Clear,0,2013-01-06 06:36:00
9:56 PM,32.0,24.8,75,29.26,10.0,ENE,3.5,-,N/A,,Clear,70,2013-01-06 06:56:00
10:16 PM,32.0,24.8,75,29.26,10.0,Calm,Calm,-,N/A,,Clear,0,2013-01-06 07:16:00
10:36 PM,32.0,23.0,69,29.25,10.0,ENE,6.9,-,N/A,,Clear,70,2013-01-06 07:36:00
10:56 PM,33.8,23.0,65,29.24,10.0,East,6.9,-,N/A,,Partly Cloudy,90,2013-01-06 07:56:00
11:16 PM,33.8,24.8,70,29.23,10.0,East,8.1,-,N/A,,Partly Cloudy,80,2013-01-06 08:16:00
11:36 PM,33.8,26.6,75,29.22,10.0,ENE,5.8,-,N/A,,Mostly Cloudy,70,2013-01-06 08:36:00
11:56 PM,33.8,26.6,75,29.22,10.0,East,6.9,-,N/A,,Mostly Cloudy,90,2013-01-06 08:56:00